Time,TemperatureF,DewpointF,PressureIn,WindDirection,WindDirectionDegrees,WindSpeedMPH,WindSpeedGustMPH,Humidity,HourlyPrecipIn,Conditions,Clouds,dailyrainin,SolarRadiationWatts/m^2,SoftwareType,DateUTC
2013-12-10 00:00:00,37.7,36.1,30.12,WNW,293,0.0,2.0,94,0.00,,---,0.41,0.00,VWS V14.01,2013-12-10 05:00:00,
2013-12-10 00:01:00,37.7,36.1,30.13,WNW,293,0.0,2.0,94,0.00,,---,0.41,0.00,VWS V14.01,2013-12-10 05:01:00,
2013-12-10 00:02:00,37.7,36.1,30.13,WNW,293,0.0,2.0,94,0.00,,---,0.41,0.00,VWS V14.01,2013-12-10 05:02:00,
2013-12-10 00:07:00,37.6,36.0,30.12,WNW,293,0.0,0.0,94,0.00,,---,0.00,0.00,VWS V14.01,2013-12-10 05:07:00,
2013-12-10 00:12:00,37.5,35.9,30.13,WNW,293,0.0,0.0,94,0.00,,---,0.00,0.00,VWS V14.01,2013-12-10 05:12:00,
2013-12-10 00:17:00,37.5,35.9,30.12,WNW,293,0.0,0.0,94,0.00,,---,0.00,0.00,VWS V14.01,2013-12-10 05:17:00,
2013-12-10 00:22:00,37.5,35.9,30.12,WNW,293,0.0,1.0,94,0.00,,---,0.00,0.00,VWS V14.01,2013-12-10 05:22:00,
2013-12-10 00:27:00,37.5,35.9,30.11,WNW,293,0.0,1.0,94,0.00,,---,0.00,0.00,VWS V14.01,2013-12-10 05:27:00,
2013-12-10 00:30:00,37.4,35.8,30.11,WNW,293,0.0,1.0,94,0.00,,---,0.00,0.00,VWS V14.01,2013-12-10 05:30:00,
2013-12-10 00:32:00,37.4,35.8,30.11,WNW,293,0.0,1.0,94,0.00,,---,0.00,0.00,VWS V14.01,2013-12-10 05:32:00,
2013-12-10 00:37:00,37.3,35.7,30.11,WNW,293,0.0,0.0,94,0.00,,---,0.00,0.00,VWS V14.01,2013-12-10 05:37:00,
2013-12-10 00:43:00,37.4,35.8,30.10,WNW,293,0.0,0.0,94,0.00,,---,0.00,0.00,VWS V14.01,2013-12-10 05:43:00,
2013-12-10 00:48:00,37.5,36.2,30.10,WNW,293,0.0,0.0,95,0.00,,---,0.00,0.00,VWS V14.01,2013-12-10 05:48:00,
2013-12-10 00:53:00,37.8,36.5,30.09,WNW,293,0.0,0.0,95,0.00,,---,0.00,0.00,VWS V14.01,2013-12-10 05:53:00,
2013-12-10 00:58:00,38.0,36.7,30.09,WNW,293,0.0,0.0,95,0.00,,---,0.00,0.00,VWS V14.01,2013-12-10 05:58:00,
2013-12-10 01:00:00,38.2,36.9,30.08,WNW,293,0.0,0.0,95,0.00,,---,0.00,0.00,VWS V14.01,2013-12-10 06:00:00,
2013-12-10 01:03:00,38.1,36.8,30.09,WNW,293,0.0,0.0,95,0.00,,---,0.00,0.00,VWS V14.01,2013-12-10 06:03:00,
2013-12-10 01:08:00,38.3,37.0,30.08,WNW,293,0.0,0.0,95,0.00,,---,0.00,0.00,VWS V14.01,2013-12-10 06:08:00,
2013-12-10 01:13:00,38.2,36.9,30.08,WNW,293,0.0,0.0,95,0.00,,---,0.00,0.00,VWS V14.01,2013-12-10 06:13:00,
2013-12-10 01:18:00,37.9,36.6,30.09,WNW,293,0.0,2.0,95,0.00,,---,0.00,0.00,VWS V14.01,2013-12-10 06:18:00,
2013-12-10 01:23:00,37.7,36.4,30.08,WNW,293,0.0,2.0,95,0.00,,---,0.00,0.00,VWS V14.01,2013-12-10 06:23:00,
2013-12-10 01:28:00,37.7,36.4,30.08,WNW,293,0.0,2.0,95,0.00,,---,0.00,0.00,VWS V14.01,2013-12-10 06:28:00,
2013-12-10 01:30:00,37.6,36.3,30.08,WNW,293,0.0,2.0,95,0.00,,---,0.00,0.00,VWS V14.01,2013-12-10 06:30:00,
2013-12-10 01:33:00,37.7,36.4,30.08,WNW,293,0.0,2.0,95,0.00,,---,0.00,0.00,VWS V14.01,2013-12-10 06:33:00,
2013-12-10 01:38:00,37.6,36.3,30.08,WNW,293,0.0,0.0,95,0.00,,---,0.00,0.00,VWS V14.01,2013-12-10 06:38:00,
2013-12-10 01:43:00,37.6,36.3,30.07,WNW,293,0.0,0.0,95,0.00,,---,0.00,0.00,VWS V14.01,2013-12-10 06:43:00,
2013-12-10 01:48:00,37.7,36.4,30.07,WNW,293,0.0,0.0,95,0.00,,---,0.00,0.00,VWS V14.01,2013-12-10 06:48:00,
2013-12-10 01:53:00,37.7,36.4,30.07,WNW,293,0.0,0.0,95,0.00,,---,0.00,0.00,VWS V14.01,2013-12-10 06:53:00,
2013-12-10 01:59:00,37.7,36.4,30.06,WNW,293,0.0,0.0,95,0.00,,---,0.00,0.00,VWS V14.01,2013-12-10 06:59:00,
2013-12-10 02:00:00,37.8,36.5,30.06,WNW,298,0.0,0.0,95,0.00,,---,0.00,0.00,VWS V14.01,2013-12-10 07:00:00,
2013-12-10 02:04:00,37.8,36.5,30.06,WNW,298,0.0,0.0,95,0.00,,---,0.00,0.00,VWS V14.01,2013-12-10 07:04:00,
2013-12-10 02:09:00,38.0,36.7,30.06,WNW,298,0.0,0.0,95,0.00,,---,0.00,0.00,VWS V14.01,2013-12-10 07:09:00,
2013-12-10 02:14:00,38.2,36.9,30.06,WNW,298,0.0,0.0,95,0.00,,---,0.00,0.00,VWS V14.01,2013-12-10 07:14:00,
2013-12-10 02:19:00,38.4,37.1,30.07,WNW,298,0.0,0.0,95,0.00,,---,0.00,0.00,VWS V14.01,2013-12-10 07:19:00,
2013-12-10 02:24:00,38.3,37.0,30.07,WNW,298,0.0,1.0,95,0.00,,---,0.00,0.00,VWS V14.01,2013-12-10 07:24:00,
2013-12-10 02:29:00,38.1,36.8,30.08,WNW,298,0.0,1.0,95,0.00,,---,0.00,0.00,VWS V14.01,2013-12-10 07:29:00,
2013-12-10 02:30:00,38.1,36.8,30.09,WNW,298,0.0,1.0,95,0.00,,---,0.00,0.00,VWS V14.01,2013-12-10 07:30:00,
2013-12-10 02:34:00,38.1,36.8,30.09,WNW,298,0.0,1.0,95,0.00,,---,0.00,0.00,VWS V14.01,2013-12-10 07:34:00,
2013-12-10 02:39:00,38.2,36.9,30.11,West,273,3.0,4.0,95,0.00,,---,0.00,0.00,VWS V14.01,2013-12-10 07:39:00,
2013-12-10 02:44:00,38.2,36.9,30.11,WNW,299,0.0,5.0,95,0.00,,---,0.00,0.00,VWS V14.01,2013-12-10 07:44:00,
2013-12-10 02:49:00,38.2,36.9,30.10,WNW,299,0.0,5.0,95,0.00,,---,0.00,0.00,VWS V14.01,2013-12-10 07:49:00,
2013-12-10 02:54:00,38.2,36.9,30.09,WNW,299,0.0,5.0,95,0.00,,---,0.00,0.00,VWS V14.01,2013-12-10 07:54:00,
2013-12-10 02:59:00,38.2,36.9,30.08,WNW,299,0.0,5.0,95,0.00,,---,0.00,0.00,VWS V14.01,2013-12-10 07:59:00,
2013-12-10 03:00:00,38.2,36.9,30.09,NW,308,0.0,5.0,95,0.00,,---,0.00,0.00,VWS V14.01,2013-12-10 08:00:00,
2013-12-10 03:04:00,38.2,36.9,30.09,NW,308,0.0,0.0,95,0.00,,---,0.00,0.00,VWS V14.01,2013-12-10 08:04:00,
2013-12-10 03:09:00,38.2,36.9,30.08,NW,309,0.0,0.0,95,0.00,,---,0.00,0.00,VWS V14.01,2013-12-10 08:09:00,
2013-12-10 03:14:00,38.3,37.0,30.07,NW,309,0.0,1.0,95,0.01,,---,0.01,0.00,VWS V14.01,2013-12-10 08:14:00,
2013-12-10 03:20:00,38.3,37.0,30.07,NW,309,0.0,1.0,95,0.01,,---,0.01,0.00,VWS V14.01,2013-12-10 08:20:00,
2013-12-10 03:25:00,38.4,37.4,30.07,NW,315,0.0,1.0,96,0.01,,---,0.01,0.00,VWS V14.01,2013-12-10 08:25:00,
2013-12-10 03:30:00,38.4,37.4,30.07,NW,315,0.0,1.0,96,0.02,,---,0.02,0.00,VWS V14.01,2013-12-10 08:30:00,
2013-12-10 03:35:00,38.5,37.5,30.07,NE,51,3.0,3.0,96,0.05,,---,0.05,0.00,VWS V14.01,2013-12-10 08:35:00,
2013-12-10 03:40:00,38.7,37.7,30.05,ENE,61,1.0,4.0,96,0.06,,---,0.06,0.00,VWS V14.01,2013-12-10 08:40:00,
2013-12-10 03:45:00,38.8,37.8,30.06,ENE,61,0.0,4.0,96,0.07,,---,0.07,0.00,VWS V14.01,2013-12-10 08:45:00,
2013-12-10 03:50:00,38.8,37.8,30.05,ENE,61,0.0,4.0,96,0.07,,---,0.07,0.00,VWS V14.01,2013-12-10 08:50:00,
2013-12-10 03:55:00,38.9,37.9,30.05,ENE,61,0.0,4.0,96,0.10,,---,0.10,0.00,VWS V14.01,2013-12-10 08:55:00,
2013-12-10 04:00:00,38.9,37.9,30.04,ENE,61,0.0,4.0,96,0.13,,---,0.13,0.00,VWS V14.01,2013-12-10 09:00:00,
2013-12-10 04:04:00,39.0,38.0,30.05,ENE,61,0.0,0.0,96,0.15,,---,0.15,0.00,VWS V14.01,2013-12-10 09:04:00,
2013-12-10 04:09:00,39.0,38.0,30.05,ENE,61,0.0,1.0,96,0.17,,---,0.17,0.00,VWS V14.01,2013-12-10 09:09:00,
2013-12-10 04:15:00,39.1,38.1,30.05,ENE,61,0.0,1.0,96,0.19,,---,0.19,0.00,VWS V14.01,2013-12-10 09:15:00,
2013-12-10 04:20:00,39.2,38.2,30.04,ENE,61,0.0,1.0,96,0.20,,---,0.20,0.00,VWS V14.01,2013-12-10 09:20:00,
2013-12-10 04:25:00,39.2,38.2,30.04,ENE,61,0.0,1.0,96,0.21,,---,0.21,0.00,VWS V14.01,2013-12-10 09:25:00,
2013-12-10 04:30:00,39.2,38.2,30.04,ENE,61,0.0,1.0,96,0.23,,---,0.23,0.00,VWS V14.01,2013-12-10 09:30:00,
2013-12-10 04:35:00,39.3,38.3,30.04,ENE,61,0.0,0.0,96,0.18,,---,0.23,0.00,VWS V14.01,2013-12-10 09:35:00,
2013-12-10 04:40:00,39.3,38.3,30.04,ENE,61,0.0,0.0,96,0.19,,---,0.24,0.00,VWS V14.01,2013-12-10 09:40:00,
2013-12-10 04:45:00,39.4,38.4,30.04,ENE,61,0.0,0.0,96,0.19,,---,0.24,0.00,VWS V14.01,2013-12-10 09:45:00,
2013-12-10 04:50:00,39.4,38.4,30.05,ENE,61,0.0,0.0,96,0.19,,---,0.24,0.00,VWS V14.01,2013-12-10 09:50:00,
2013-12-10 04:55:00,39.4,38.4,30.04,ENE,61,0.0,0.0,96,0.21,,---,0.26,0.00,VWS V14.01,2013-12-10 09:55:00,
2013-12-10 05:00:00,39.5,38.5,30.03,ENE,61,0.0,0.0,96,0.21,,---,0.26,0.00,VWS V14.01,2013-12-10 10:00:00,
2013-12-10 05:05:00,39.5,38.5,30.03,ENE,61,0.0,0.0,96,0.12,,---,0.27,0.00,VWS V14.01,2013-12-10 10:05:00,
2013-12-10 05:10:00,39.5,38.5,30.03,ENE,61,0.0,0.0,96,0.12,,---,0.27,0.00,VWS V14.01,2013-12-10 10:10:00,
2013-12-10 05:15:00,39.5,38.5,30.03,ENE,61,0.0,0.0,96,0.13,,---,0.28,0.00,VWS V14.01,2013-12-10 10:15:00,
2013-12-10 05:21:00,39.5,38.5,30.04,ENE,61,0.0,0.0,96,0.14,,---,0.29,0.00,VWS V14.01,2013-12-10 10:21:00,
2013-12-10 05:26:00,39.5,38.5,30.03,ENE,61,0.0,0.0,96,0.16,,---,0.31,0.00,VWS V14.01,2013-12-10 10:26:00,
2013-12-10 05:30:00,39.5,38.5,30.04,ENE,61,0.0,0.0,96,0.20,,---,0.35,0.00,VWS V14.01,2013-12-10 10:30:00,
2013-12-10 05:31:00,39.5,38.5,30.04,ENE,61,0.0,0.0,96,0.19,,---,0.34,0.00,VWS V14.01,2013-12-10 10:31:00,
2013-12-10 05:36:00,39.5,38.5,30.03,ENE,61,0.0,0.0,96,0.13,,---,0.36,0.00,VWS V14.01,2013-12-10 10:36:00,
2013-12-10 05:41:00,39.5,38.5,30.02,ENE,61,0.0,0.0,96,0.14,,---,0.37,0.00,VWS V14.01,2013-12-10 10:41:00,
2013-12-10 05:46:00,39.4,38.4,30.03,ENE,61,0.0,0.0,96,0.14,,---,0.37,0.00,VWS V14.01,2013-12-10 10:46:00,
2013-12-10 05:51:00,39.4,38.4,30.03,ENE,61,0.0,0.0,96,0.15,,---,0.38,0.00,VWS V14.01,2013-12-10 10:51:00,
2013-12-10 05:56:00,39.4,38.4,30.02,ENE,61,0.0,0.0,96,0.15,,---,0.38,0.00,VWS V14.01,2013-12-10 10:56:00,
2013-12-10 06:00:00,39.3,38.3,30.03,ENE,61,0.0,2.0,96,0.16,,---,0.39,0.00,VWS V14.01,2013-12-10 11:00:00,
2013-12-10 06:01:00,39.3,38.3,30.02,ENE,61,0.0,2.0,96,0.16,,---,0.39,0.00,VWS V14.01,2013-12-10 11:01:00,
2013-12-10 06:07:00,39.3,38.3,30.03,ENE,61,0.0,0.0,96,0.13,,---,0.39,0.00,VWS V14.01,2013-12-10 11:07:00,
2013-12-10 06:12:00,39.2,38.2,30.02,ENE,61,0.0,0.0,96,0.13,,---,0.39,0.00,VWS V14.01,2013-12-10 11:12:00,
2013-12-10 06:17:00,39.3,38.3,30.01,ENE,61,0.0,0.0,96,0.14,,---,0.40,0.00,VWS V14.01,2013-12-10 11:17:00,
2013-12-10 06:22:00,39.2,38.2,30.02,ENE,61,0.0,0.0,96,0.14,,---,0.40,0.00,VWS V14.01,2013-12-10 11:22:00,
2013-12-10 06:27:00,39.2,38.2,30.03,ENE,61,0.0,1.0,96,0.14,,---,0.40,0.00,VWS V14.01,2013-12-10 11:27:00,
2013-12-10 06:30:00,39.1,38.1,30.04,ENE,61,0.0,1.0,96,0.14,,---,0.40,0.00,VWS V14.01,2013-12-10 11:30:00,
2013-12-10 06:32:00,39.2,38.2,30.03,ENE,61,0.0,1.0,96,0.14,,---,0.40,0.00,VWS V14.01,2013-12-10 11:32:00,
2013-12-10 06:37:00,39.2,38.2,30.04,ENE,61,0.0,0.0,96,0.06,,---,0.41,0.00,VWS V14.01,2013-12-10 11:37:00,
2013-12-10 06:42:00,39.2,38.2,30.04,ENE,61,0.0,2.0,96,0.06,,---,0.41,0.00,VWS V14.01,2013-12-10 11:42:00,
2013-12-10 06:47:00,39.2,38.2,30.03,ENE,61,0.0,2.0,96,0.06,,---,0.41,0.00,VWS V14.01,2013-12-10 11:47:00,
2013-12-10 06:52:00,39.2,38.2,30.02,ENE,61,1.0,2.0,96,0.07,,---,0.42,0.00,VWS V14.01,2013-12-10 11:52:00,
2013-12-10 06:57:00,39.1,38.1,30.01,ENE,61,0.0,2.0,96,0.07,,---,0.42,0.00,VWS V14.01,2013-12-10 11:57:00,
2013-12-10 07:00:00,39.1,38.1,30.02,ENE,61,0.0,2.0,96,0.07,,---,0.42,0.00,VWS V14.01,2013-12-10 12:00:00,
2013-12-10 07:02:00,39.1,38.1,30.02,ENE,61,0.0,2.0,96,0.07,,---,0.42,0.00,VWS V14.01,2013-12-10 12:02:00,
2013-12-10 07:07:00,39.1,38.1,30.03,ENE,61,0.0,0.0,96,0.03,,---,0.42,0.00,VWS V14.01,2013-12-10 12:07:00,
2013-12-10 07:12:00,39.1,38.1,30.03,ENE,61,0.0,0.0,96,0.03,,---,0.42,0.00,VWS V14.01,2013-12-10 12:12:00,
2013-12-10 07:18:00,39.1,38.1,30.03,ENE,61,0.0,2.0,96,0.03,,---,0.42,0.00,VWS V14.01,2013-12-10 12:18:00,
2013-12-10 07:23:00,39.1,38.1,30.03,ENE,61,0.0,3.0,96,0.03,,---,0.42,0.00,VWS V14.01,2013-12-10 12:23:00,
2013-12-10 07:28:00,38.9,37.9,30.02,ENE,61,0.0,3.0,96,0.04,,---,0.43,0.00,VWS V14.01,2013-12-10 12:28:00,
2013-12-10 07:30:00,38.9,37.9,30.02,ENE,61,0.0,3.0,96,0.04,,---,0.43,0.00,VWS V14.01,2013-12-10 12:30:00,
2013-12-10 07:33:00,38.9,37.9,30.01,ENE,61,0.0,3.0,96,0.04,,---,0.43,0.00,VWS V14.01,2013-12-10 12:33:00,
2013-12-10 07:38:00,38.9,37.9,30.02,NNE,13,1.0,3.0,96,0.03,,---,0.43,0.00,VWS V14.01,2013-12-10 12:38:00,
2013-12-10 07:43:00,38.8,37.8,30.02,NNE,13,1.0,3.0,96,0.03,,---,0.43,0.00,VWS V14.01,2013-12-10 12:43:00,
2013-12-10 07:48:00,38.8,37.8,30.02,NNE,13,0.0,3.0,96,0.03,,---,0.43,5.00,VWS V14.01,2013-12-10 12:48:00,
2013-12-10 07:53:00,38.7,37.7,30.02,NNE,13,0.0,3.0,96,0.03,,---,0.43,9.00,VWS V14.01,2013-12-10 12:53:00,
2013-12-10 07:58:00,38.6,37.6,30.01,NNE,13,0.0,3.0,96,0.03,,---,0.43,5.00,VWS V14.01,2013-12-10 12:58:00,
2013-12-10 08:00:00,38.6,37.6,30.02,NNE,13,0.0,3.0,96,0.03,,---,0.43,0.00,VWS V14.01,2013-12-10 13:00:00,
2013-12-10 08:03:00,38.6,37.6,30.02,NNE,13,0.0,3.0,96,0.03,,---,0.43,0.00,VWS V14.01,2013-12-10 13:03:00,
2013-12-10 08:08:00,38.6,37.6,30.02,NNE,13,0.0,0.0,96,0.01,,---,0.43,5.00,VWS V14.01,2013-12-10 13:08:00,
2013-12-10 08:13:00,38.6,37.6,30.02,NNE,13,0.0,0.0,96,0.02,,---,0.44,9.00,VWS V14.01,2013-12-10 13:13:00,
2013-12-10 08:18:00,38.6,37.6,30.03,NNE,13,0.0,0.0,96,0.02,,---,0.44,9.00,VWS V14.01,2013-12-10 13:18:00,
2013-12-10 08:23:00,38.6,37.6,30.03,NNE,13,0.0,0.0,96,0.02,,---,0.44,11.00,VWS V14.01,2013-12-10 13:23:00,
2013-12-10 08:29:00,38.6,37.6,30.03,NNE,13,0.0,0.0,96,0.02,,---,0.44,14.00,VWS V14.01,2013-12-10 13:29:00,
2013-12-10 08:30:00,38.6,37.6,30.02,NNE,13,0.0,0.0,96,0.02,,---,0.44,26.00,VWS V14.01,2013-12-10 13:30:00,
2013-12-10 08:34:00,38.6,37.6,30.02,NNE,13,0.0,0.0,96,0.02,,---,0.44,26.00,VWS V14.01,2013-12-10 13:34:00,
2013-12-10 08:39:00,38.5,37.5,30.02,NNE,13,0.0,0.0,96,0.01,,---,0.44,21.00,VWS V14.01,2013-12-10 13:39:00,
2013-12-10 08:44:00,38.5,37.5,30.02,NNE,13,0.0,0.0,96,0.01,,---,0.44,44.00,VWS V14.01,2013-12-10 13:44:00,
2013-12-10 08:49:00,38.6,37.6,30.02,NNE,13,0.0,0.0,96,0.01,,---,0.44,42.00,VWS V14.01,2013-12-10 13:49:00,
2013-12-10 08:54:00,38.6,37.6,30.03,NNE,13,0.0,0.0,96,0.01,,---,0.44,25.00,VWS V14.01,2013-12-10 13:54:00,
2013-12-10 08:59:00,38.6,37.6,30.03,NNE,13,0.0,0.0,96,0.01,,---,0.44,33.00,VWS V14.01,2013-12-10 13:59:00,
2013-12-10 09:00:00,38.6,37.6,30.03,NNE,13,0.0,2.0,96,0.01,,---,0.44,40.00,VWS V14.01,2013-12-10 14:00:00,
2013-12-10 09:04:00,38.6,37.6,30.03,NNE,13,0.0,2.0,96,0.01,,---,0.44,40.00,VWS V14.01,2013-12-10 14:04:00,
2013-12-10 09:09:00,38.5,37.5,30.03,NNE,13,0.0,0.0,96,0.01,,---,0.44,37.00,VWS V14.01,2013-12-10 14:09:00,
2013-12-10 09:14:00,38.5,37.5,30.03,NNE,13,0.0,0.0,96,0.01,,---,0.44,30.00,VWS V14.01,2013-12-10 14:14:00,
2013-12-10 09:19:00,38.5,37.5,30.03,NNE,13,0.0,0.0,96,0.01,,---,0.44,72.00,VWS V14.01,2013-12-10 14:19:00,
2013-12-10 09:24:00,38.6,37.6,30.04,NNE,13,0.0,0.0,96,0.01,,---,0.44,65.00,VWS V14.01,2013-12-10 14:24:00,
2013-12-10 09:29:00,38.6,37.6,30.04,NNE,13,0.0,1.0,96,0.01,,---,0.44,53.00,VWS V14.01,2013-12-10 14:29:00,
2013-12-10 09:30:00,38.6,37.6,30.04,NNE,13,2.0,3.0,96,0.01,,---,0.44,54.00,VWS V14.01,2013-12-10 14:30:00,
2013-12-10 09:35:00,38.6,37.6,30.04,NNE,13,1.0,2.0,96,0.00,,---,0.44,53.00,VWS V14.01,2013-12-10 14:35:00,
2013-12-10 09:40:00,38.5,37.5,30.04,NNE,13,0.0,2.0,96,0.00,,---,0.44,60.00,VWS V14.01,2013-12-10 14:40:00,
2013-12-10 09:45:00,38.4,37.4,30.05,NNW,342,3.0,4.0,96,0.00,,---,0.44,33.00,VWS V14.01,2013-12-10 14:45:00,
2013-12-10 09:50:00,38.3,37.3,30.05,NNW,342,0.0,4.0,96,0.00,,---,0.44,35.00,VWS V14.01,2013-12-10 14:50:00,
2013-12-10 09:55:00,38.2,37.2,30.07,WNW,290,0.0,4.0,96,0.00,,---,0.44,53.00,VWS V14.01,2013-12-10 14:55:00,
2013-12-10 10:00:00,38.2,37.2,30.06,NW,315,2.0,4.0,96,0.00,,---,0.44,37.00,VWS V14.01,2013-12-10 15:00:00,
2013-12-10 10:05:00,38.2,37.2,30.06,NW,317,0.0,2.0,96,0.00,,---,0.44,90.00,VWS V14.01,2013-12-10 15:05:00,
2013-12-10 10:10:00,38.2,37.2,30.07,NW,317,3.0,3.0,96,0.00,,---,0.44,51.00,VWS V14.01,2013-12-10 15:10:00,
2013-12-10 10:15:00,38.2,37.2,30.07,WNW,300,3.0,4.0,96,0.00,,---,0.44,54.00,VWS V14.01,2013-12-10 15:15:00,
2013-12-10 10:20:00,37.9,36.9,30.08,NW,313,3.0,9.0,96,0.00,,---,0.44,60.00,VWS V14.01,2013-12-10 15:20:00,
2013-12-10 10:25:00,37.7,36.7,30.08,NW,311,0.0,9.0,96,0.00,,---,0.44,35.00,VWS V14.01,2013-12-10 15:25:00,
2013-12-10 10:30:00,37.7,36.7,30.08,NW,311,0.0,9.0,96,0.00,,---,0.44,70.00,VWS V14.01,2013-12-10 15:30:00,
2013-12-10 10:35:00,37.5,36.5,30.09,NW,312,0.0,5.0,96,0.00,,---,0.44,74.00,VWS V14.01,2013-12-10 15:35:00,
2013-12-10 10:41:00,37.3,36.3,30.09,NW,315,4.0,6.0,96,0.00,,---,0.44,79.00,VWS V14.01,2013-12-10 15:41:00,
2013-12-10 10:46:00,37.1,36.1,30.09,WNW,298,0.0,6.0,96,0.00,,---,0.44,97.00,VWS V14.01,2013-12-10 15:46:00,
2013-12-10 10:51:00,37.1,36.1,30.10,NW,311,0.0,6.0,96,0.00,,---,0.44,90.00,VWS V14.01,2013-12-10 15:51:00,
2013-12-10 10:56:00,37.2,36.2,30.10,West,281,3.0,6.0,96,0.00,,---,0.44,77.00,VWS V14.01,2013-12-10 15:56:00,
2013-12-10 11:00:00,37.0,36.0,30.10,NW,305,2.0,6.0,96,0.00,,---,0.44,97.00,VWS V14.01,2013-12-10 16:00:00,
2013-12-10 11:01:00,37.1,36.1,30.10,WNW,290,0.0,6.0,96,0.00,,---,0.44,86.00,VWS V14.01,2013-12-10 16:01:00,
2013-12-10 11:06:00,37.0,36.0,30.10,NNW,330,5.0,5.0,96,0.00,,---,0.44,105.00,VWS V14.01,2013-12-10 16:06:00,
2013-12-10 11:11:00,37.0,36.0,30.11,West,275,0.0,6.0,96,0.00,,---,0.44,174.00,VWS V14.01,2013-12-10 16:11:00,
2013-12-10 11:16:00,37.1,36.1,30.11,NW,318,4.0,10.0,96,0.00,,---,0.44,130.00,VWS V14.01,2013-12-10 16:16:00,
2013-12-10 11:21:00,37.3,36.3,30.11,NW,321,0.0,10.0,96,0.00,,---,0.44,213.00,VWS V14.01,2013-12-10 16:21:00,
2013-12-10 11:26:00,37.6,36.6,30.12,WNW,301,0.0,10.0,96,0.00,,---,0.44,160.00,VWS V14.01,2013-12-10 16:26:00,
2013-12-10 11:30:00,37.2,35.6,30.12,NW,319,2.0,10.0,94,0.00,,---,0.44,141.00,VWS V14.01,2013-12-10 16:30:00,
2013-12-10 11:31:00,37.4,36.1,30.12,West,277,2.0,10.0,95,0.00,,---,0.44,142.00,VWS V14.01,2013-12-10 16:31:00,
2013-12-10 11:36:00,37.1,35.5,30.12,WNW,288,11.0,11.0,94,0.00,,---,0.44,144.00,VWS V14.01,2013-12-10 16:36:00,
2013-12-10 11:41:00,36.9,34.8,30.12,NW,325,10.0,15.0,92,0.00,,---,0.44,239.00,VWS V14.01,2013-12-10 16:41:00,
2013-12-10 11:46:00,36.8,34.4,30.12,WSW,256,5.0,15.0,91,0.00,,---,0.44,304.00,VWS V14.01,2013-12-10 16:46:00,
2013-12-10 11:51:00,37.0,34.3,30.13,WNW,294,4.0,15.0,90,0.00,,---,0.44,158.00,VWS V14.01,2013-12-10 16:51:00,
2013-12-10 11:57:00,36.8,33.6,30.14,WSW,242,12.0,16.0,88,0.00,,---,0.44,153.00,VWS V14.01,2013-12-10 16:57:00,
2013-12-10 12:00:00,36.3,32.8,30.14,NW,306,5.0,16.0,87,0.00,,---,0.44,214.00,VWS V14.01,2013-12-10 17:00:00,
2013-12-10 12:02:00,36.4,32.9,30.13,WSW,244,6.0,16.0,87,0.00,,---,0.44,230.00,VWS V14.01,2013-12-10 17:02:00,
2013-12-10 12:07:00,36.2,32.4,30.14,West,265,5.0,11.0,86,0.00,,---,0.44,178.00,VWS V14.01,2013-12-10 17:07:00,
2013-12-10 12:12:00,36.2,32.1,30.14,WNW,295,5.0,12.0,85,0.00,,---,0.44,128.00,VWS V14.01,2013-12-10 17:12:00,
2013-12-10 12:17:00,36.0,31.6,30.14,WNW,292,7.0,13.0,84,0.00,,---,0.44,105.00,VWS V14.01,2013-12-10 17:17:00,
2013-12-10 12:22:00,36.0,31.6,30.14,NW,315,5.0,13.0,84,0.00,,---,0.44,116.00,VWS V14.01,2013-12-10 17:22:00,
2013-12-10 12:27:00,35.9,31.5,30.14,WNW,303,4.0,13.0,84,0.00,,---,0.44,107.00,VWS V14.01,2013-12-10 17:27:00,
2013-12-10 12:30:00,35.8,31.1,30.14,WNW,302,0.0,13.0,83,0.00,,---,0.44,163.00,VWS V14.01,2013-12-10 17:30:00,
2013-12-10 12:32:00,35.8,31.1,30.14,NW,305,3.0,13.0,83,0.00,,---,0.44,220.00,VWS V14.01,2013-12-10 17:32:00,
2013-12-10 12:37:00,35.8,31.1,30.14,WNW,302,0.0,6.0,83,0.00,,---,0.44,213.00,VWS V14.01,2013-12-10 17:37:00,
2013-12-10 12:42:00,36.1,31.7,30.13,West,277,8.0,10.0,84,0.00,,---,0.44,214.00,VWS V14.01,2013-12-10 17:42:00,
2013-12-10 12:47:00,36.2,31.5,30.13,West,266,5.0,12.0,83,0.00,,---,0.44,346.00,VWS V14.01,2013-12-10 17:47:00,
2013-12-10 12:52:00,36.5,31.5,30.13,West,262,3.0,14.0,82,0.00,,---,0.44,585.00,VWS V14.01,2013-12-10 17:52:00,
2013-12-10 12:57:00,36.6,31.0,30.13,West,274,2.0,14.0,80,0.00,,---,0.44,109.00,VWS V14.01,2013-12-10 17:57:00,
2013-12-10 13:00:00,36.0,30.8,30.14,WSW,256,6.0,14.0,81,0.00,,---,0.44,169.00,VWS V14.01,2013-12-10 18:00:00,
2013-12-10 13:03:00,36.1,30.8,30.14,WSW,252,9.0,14.0,81,0.00,,---,0.44,134.00,VWS V14.01,2013-12-10 18:03:00,
2013-12-10 13:08:00,36.0,31.0,30.14,WNW,284,6.0,10.0,82,0.00,,---,0.44,83.00,VWS V14.01,2013-12-10 18:08:00,
2013-12-10 13:13:00,35.9,31.0,30.14,WSW,240,3.0,10.0,82,0.00,,---,0.44,109.00,VWS V14.01,2013-12-10 18:13:00,
2013-12-10 13:18:00,35.6,30.4,30.14,NW,313,10.0,14.0,81,0.00,,---,0.44,114.00,VWS V14.01,2013-12-10 18:18:00,
2013-12-10 13:23:00,35.6,30.7,30.14,West,273,2.0,14.0,82,0.00,,---,0.44,139.00,VWS V14.01,2013-12-10 18:23:00,
2013-12-10 13:28:00,35.4,30.5,30.15,NNW,335,4.0,14.0,82,0.00,,---,0.44,98.00,VWS V14.01,2013-12-10 18:28:00,
2013-12-10 13:30:00,34.8,29.9,30.15,WSW,252,4.0,14.0,82,0.00,,---,0.44,79.00,VWS V14.01,2013-12-10 18:30:00,
2013-12-10 13:33:00,35.0,30.1,30.15,NW,307,3.0,14.0,82,0.00,,---,0.44,120.00,VWS V14.01,2013-12-10 18:33:00,
2013-12-10 13:38:00,34.4,29.5,30.15,West,278,9.0,12.0,82,0.00,,---,0.44,104.00,VWS V14.01,2013-12-10 18:38:00,
2013-12-10 13:43:00,33.9,29.0,30.15,NW,325,4.0,12.0,82,0.00,,---,0.44,95.00,VWS V14.01,2013-12-10 18:43:00,
2013-12-10 13:48:00,33.5,28.6,30.16,WNW,294,5.0,12.0,82,0.00,,---,0.44,88.00,VWS V14.01,2013-12-10 18:48:00,
2013-12-10 13:53:00,33.4,28.5,30.15,WNW,286,2.0,12.0,82,0.00,,---,0.44,98.00,VWS V14.01,2013-12-10 18:53:00,
2013-12-10 13:58:00,33.1,28.5,30.16,West,273,5.0,12.0,83,0.00,,---,0.44,91.00,VWS V14.01,2013-12-10 18:58:00,
2013-12-10 14:00:00,32.8,28.5,30.16,NW,306,5.0,12.0,84,0.00,,---,0.44,130.00,VWS V14.01,2013-12-10 19:00:00,
2013-12-10 14:03:00,32.9,28.3,30.16,NW,308,5.0,12.0,83,0.00,,---,0.44,130.00,VWS V14.01,2013-12-10 19:03:00,
2013-12-10 14:08:00,32.6,28.3,30.16,West,265,2.0,7.0,84,0.00,,---,0.44,91.00,VWS V14.01,2013-12-10 19:08:00,
2013-12-10 14:14:00,32.5,28.2,30.16,NW,310,5.0,9.0,84,0.00,,---,0.44,146.00,VWS V14.01,2013-12-10 19:14:00,
2013-12-10 14:19:00,32.4,28.1,30.16,WNW,297,6.0,11.0,84,0.00,,---,0.44,97.00,VWS V14.01,2013-12-10 19:19:00,
2013-12-10 14:24:00,32.3,28.0,30.17,NW,324,3.0,12.0,84,0.00,,---,0.44,77.00,VWS V14.01,2013-12-10 19:24:00,
2013-12-10 14:29:00,32.4,28.1,30.17,WNW,286,3.0,12.0,84,0.00,,---,0.44,84.00,VWS V14.01,2013-12-10 19:29:00,
2013-12-10 14:30:00,32.5,28.2,30.17,NW,305,2.0,12.0,84,0.00,,---,0.44,132.00,VWS V14.01,2013-12-10 19:30:00,
2013-12-10 14:34:00,32.5,28.2,30.17,West,262,1.0,12.0,84,0.00,,---,0.44,120.00,VWS V14.01,2013-12-10 19:34:00,
2013-12-10 14:39:00,32.6,28.0,30.18,NW,306,9.0,9.0,83,0.00,,---,0.44,49.00,VWS V14.01,2013-12-10 19:39:00,
2013-12-10 14:44:00,32.4,27.5,30.18,NW,309,10.0,11.0,82,0.00,,---,0.44,90.00,VWS V14.01,2013-12-10 19:44:00,
2013-12-10 14:49:00,32.3,27.1,30.19,SSW,210,10.0,15.0,81,0.00,,---,0.44,63.00,VWS V14.01,2013-12-10 19:49:00,
2013-12-10 14:54:00,32.3,27.1,30.20,SW,222,3.0,15.0,81,0.00,,---,0.44,77.00,VWS V14.01,2013-12-10 19:54:00,
2013-12-10 14:59:00,32.4,26.9,30.20,WNW,284,10.0,15.0,80,0.00,,---,0.44,40.00,VWS V14.01,2013-12-10 19:59:00,
2013-12-10 15:00:00,32.4,26.0,30.20,NW,317,10.0,15.0,77,0.00,,---,0.44,47.00,VWS V14.01,2013-12-10 20:00:00,
2013-12-10 15:04:00,32.4,26.0,30.20,WSW,255,13.0,13.0,77,0.00,,---,0.44,47.00,VWS V14.01,2013-12-10 20:04:00,
2013-12-10 15:09:00,32.2,25.5,30.20,West,261,3.0,13.0,76,0.00,,---,0.44,40.00,VWS V14.01,2013-12-10 20:09:00,
2013-12-10 15:14:00,32.1,25.4,30.21,WSW,255,7.0,13.0,76,0.00,,---,0.44,135.00,VWS V14.01,2013-12-10 20:14:00,
2013-12-10 15:20:00,32.3,25.6,30.21,WNW,282,6.0,13.0,76,0.00,,---,0.44,137.00,VWS V14.01,2013-12-10 20:20:00,
2013-12-10 15:25:00,32.8,26.1,30.22,NW,308,8.0,13.0,76,0.00,,---,0.44,255.00,VWS V14.01,2013-12-10 20:25:00,
2013-12-10 15:30:00,33.1,25.7,30.22,WNW,296,6.0,18.0,74,0.00,,---,0.44,237.00,VWS V14.01,2013-12-10 20:30:00,
2013-12-10 15:35:00,33.2,25.5,30.22,WNW,303,4.0,6.0,73,0.00,,---,0.44,83.00,VWS V14.01,2013-12-10 20:35:00,
2013-12-10 15:40:00,32.8,25.1,30.22,West,259,5.0,7.0,73,0.00,,---,0.44,123.00,VWS V14.01,2013-12-10 20:40:00,
2013-12-10 15:45:00,32.2,25.2,30.22,NW,317,4.0,7.0,75,0.00,,---,0.44,54.00,VWS V14.01,2013-12-10 20:45:00,
2013-12-10 15:50:00,31.9,25.2,30.22,NNW,329,1.0,10.0,76,0.00,,---,0.44,62.00,VWS V14.01,2013-12-10 20:50:00,
2013-12-10 15:55:00,31.7,25.0,30.22,WSW,255,3.0,10.0,76,0.00,,---,0.44,113.00,VWS V14.01,2013-12-10 20:55:00,
2013-12-10 16:00:00,31.7,24.7,30.22,NW,313,4.0,10.0,75,0.00,,---,0.44,100.00,VWS V14.01,2013-12-10 21:00:00,
2013-12-10 16:05:00,31.8,25.1,30.22,WSW,246,4.0,7.0,76,0.00,,---,0.44,30.00,VWS V14.01,2013-12-10 21:05:00,
2013-12-10 16:10:00,31.8,24.5,30.23,West,261,10.0,12.0,74,0.00,,---,0.44,47.00,VWS V14.01,2013-12-10 21:10:00,
2013-12-10 16:15:00,31.6,24.3,30.23,NW,323,4.0,12.0,74,0.00,,---,0.44,21.00,VWS V14.01,2013-12-10 21:15:00,
2013-12-10 16:20:00,31.5,24.8,30.24,NW,317,4.0,12.0,76,0.00,,---,0.44,32.00,VWS V14.01,2013-12-10 21:20:00,
2013-12-10 16:26:00,31.2,24.5,30.24,NW,321,5.0,12.0,76,0.00,,---,0.44,30.00,VWS V14.01,2013-12-10 21:26:00,
2013-12-10 16:30:00,30.9,24.5,30.25,WNW,294,0.0,12.0,77,0.00,,---,0.44,21.00,VWS V14.01,2013-12-10 21:30:00,
2013-12-10 16:31:00,31.0,24.3,30.25,NW,323,3.0,12.0,76,0.00,,---,0.44,19.00,VWS V14.01,2013-12-10 21:31:00,
2013-12-10 16:36:00,30.8,24.5,30.25,NW,306,0.0,5.0,77,0.00,,---,0.44,23.00,VWS V14.01,2013-12-10 21:36:00,
2013-12-10 16:41:00,30.7,24.0,30.25,West,269,3.0,9.0,76,0.00,,---,0.44,19.00,VWS V14.01,2013-12-10 21:41:00,
2013-12-10 16:46:00,30.5,24.2,30.25,NW,307,3.0,9.0,77,0.00,,---,0.44,14.00,VWS V14.01,2013-12-10 21:46:00,
2013-12-10 16:51:00,30.4,23.8,30.25,NW,312,0.0,9.0,76,0.00,,---,0.44,11.00,VWS V14.01,2013-12-10 21:51:00,
2013-12-10 16:56:00,30.3,23.7,30.25,West,273,2.0,10.0,76,0.00,,---,0.44,9.00,VWS V14.01,2013-12-10 21:56:00,
2013-12-10 17:00:00,30.0,23.4,30.26,West,273,1.0,10.0,76,0.00,,---,0.44,5.00,VWS V14.01,2013-12-10 22:00:00,
2013-12-10 17:01:00,30.1,23.5,30.26,West,263,0.0,10.0,76,0.00,,---,0.44,5.00,VWS V14.01,2013-12-10 22:01:00,
2013-12-10 17:06:00,29.9,23.3,30.26,NW,306,4.0,5.0,76,0.00,,---,0.44,0.00,VWS V14.01,2013-12-10 22:06:00,
2013-12-10 17:11:00,29.8,22.9,30.27,WNW,295,0.0,9.0,75,0.00,,---,0.44,0.00,VWS V14.01,2013-12-10 22:11:00,
2013-12-10 17:16:00,29.7,23.1,30.27,WNW,298,0.0,9.0,76,0.00,,---,0.44,0.00,VWS V14.01,2013-12-10 22:16:00,
2013-12-10 17:21:00,29.5,22.9,30.27,WNW,293,0.0,9.0,76,0.00,,---,0.44,0.00,VWS V14.01,2013-12-10 22:21:00,
2013-12-10 17:26:00,29.3,23.0,30.27,NW,308,3.0,9.0,77,0.00,,---,0.44,0.00,VWS V14.01,2013-12-10 22:26:00,
2013-12-10 17:30:00,29.2,22.6,30.28,WNW,284,1.0,9.0,76,0.00,,---,0.44,0.00,VWS V14.01,2013-12-10 22:30:00,
2013-12-10 17:32:00,29.2,22.6,30.28,WNW,299,1.0,9.0,76,0.00,,---,0.44,0.00,VWS V14.01,2013-12-10 22:32:00,
2013-12-10 17:37:00,29.2,22.3,30.28,NW,307,1.0,4.0,75,0.00,,---,0.44,0.00,VWS V14.01,2013-12-10 22:37:00,
2013-12-10 17:42:00,29.1,21.9,30.28,NW,315,2.0,7.0,74,0.00,,---,0.44,0.00,VWS V14.01,2013-12-10 22:42:00,
2013-12-10 17:47:00,29.0,21.8,30.28,NW,317,3.0,7.0,74,0.00,,---,0.44,0.00,VWS V14.01,2013-12-10 22:47:00,
2013-12-10 17:52:00,29.0,21.8,30.28,WNW,303,4.0,8.0,74,0.00,,---,0.44,0.00,VWS V14.01,2013-12-10 22:52:00,
2013-12-10 17:57:00,29.0,21.8,30.28,NW,306,2.0,8.0,74,0.00,,---,0.44,0.00,VWS V14.01,2013-12-10 22:57:00,
2013-12-10 18:00:00,28.9,21.4,30.29,WNW,299,9.0,9.0,73,0.00,,---,0.44,0.00,VWS V14.01,2013-12-10 23:00:00,
2013-12-10 18:02:00,28.9,21.7,30.29,NW,306,3.0,8.0,74,0.00,,---,0.44,0.00,VWS V14.01,2013-12-10 23:02:00,
2013-12-10 18:07:00,28.9,21.4,30.29,West,279,0.0,10.0,73,0.00,,---,0.44,0.00,VWS V14.01,2013-12-10 23:07:00,
2013-12-10 18:12:00,28.9,21.4,30.29,WNW,294,3.0,10.0,73,0.00,,---,0.44,0.00,VWS V14.01,2013-12-10 23:12:00,
2013-12-10 18:17:00,28.8,21.2,30.29,WNW,296,3.0,10.0,73,0.00,,---,0.44,0.00,VWS V14.01,2013-12-10 23:17:00,
2013-12-10 18:22:00,28.7,21.1,30.29,West,268,0.0,10.0,73,0.00,,---,0.44,0.00,VWS V14.01,2013-12-10 23:22:00,
2013-12-10 18:27:00,28.7,21.1,30.29,WNW,293,1.0,10.0,73,0.00,,---,0.44,0.00,VWS V14.01,2013-12-10 23:27:00,
2013-12-10 18:30:00,28.6,20.7,30.29,WNW,289,2.0,12.0,72,0.00,,---,0.44,0.00,VWS V14.01,2013-12-10 23:30:00,
2013-12-10 18:32:00,28.6,20.7,30.29,West,273,6.0,12.0,72,0.00,,---,0.44,0.00,VWS V14.01,2013-12-10 23:32:00,
2013-12-10 18:37:00,28.6,20.7,30.30,West,271,4.0,7.0,72,0.00,,---,0.44,0.00,VWS V14.01,2013-12-10 23:37:00,
2013-12-10 18:43:00,28.5,20.6,30.30,WNW,293,6.0,7.0,72,0.00,,---,0.44,0.00,VWS V14.01,2013-12-10 23:43:00,
2013-12-10 18:48:00,28.5,20.6,30.30,WNW,299,2.0,9.0,72,0.00,,---,0.44,0.00,VWS V14.01,2013-12-10 23:48:00,
2013-12-10 18:53:00,28.4,20.2,30.31,West,271,5.0,9.0,71,0.00,,---,0.44,0.00,VWS V14.01,2013-12-10 23:53:00,
2013-12-10 18:58:00,28.5,20.3,30.31,NW,322,2.0,11.0,71,0.00,,---,0.44,0.00,VWS V14.01,2013-12-10 23:58:00,
2013-12-10 19:00:00,28.5,20.0,30.31,West,271,3.0,11.0,70,0.00,,---,0.44,0.00,VWS V14.01,2013-12-11 00:00:00,
2013-12-10 19:03:00,28.5,20.0,30.31,West,278,2.0,11.0,70,0.00,,---,0.44,0.00,VWS V14.01,2013-12-11 00:03:00,
2013-12-10 19:08:00,28.5,20.0,30.31,West,277,2.0,9.0,70,0.00,,---,0.44,0.00,VWS V14.01,2013-12-11 00:08:00,
2013-12-10 19:13:00,28.5,19.6,30.31,NW,309,6.0,9.0,69,0.00,,---,0.44,0.00,VWS V14.01,2013-12-11 00:13:00,
2013-12-10 19:18:00,28.5,19.6,30.32,WNW,300,2.0,11.0,69,0.00,,---,0.44,0.00,VWS V14.01,2013-12-11 00:18:00,
2013-12-10 19:23:00,28.5,19.6,30.32,West,281,3.0,11.0,69,0.00,,---,0.44,0.00,VWS V14.01,2013-12-11 00:23:00,
2013-12-10 19:28:00,28.4,19.5,30.32,West,260,4.0,11.0,69,0.00,,---,0.44,0.00,VWS V14.01,2013-12-11 00:28:00,
2013-12-10 19:30:00,28.4,19.2,30.33,West,271,2.0,11.0,68,0.00,,---,0.44,0.00,VWS V14.01,2013-12-11 00:30:00,
2013-12-10 19:33:00,28.4,19.2,30.33,WNW,296,1.0,11.0,68,0.00,,---,0.44,0.00,VWS V14.01,2013-12-11 00:33:00,
2013-12-10 19:38:00,28.4,19.2,30.32,WNW,295,2.0,6.0,68,0.00,,---,0.44,0.00,VWS V14.01,2013-12-11 00:38:00,
2013-12-10 19:43:00,28.3,19.1,30.32,NW,313,3.0,9.0,68,0.00,,---,0.44,0.00,VWS V14.01,2013-12-11 00:43:00,
2013-12-10 19:49:00,28.3,19.1,30.32,NW,304,0.0,9.0,68,0.00,,---,0.44,0.00,VWS V14.01,2013-12-11 00:49:00,
2013-12-10 19:54:00,28.2,19.0,30.32,West,281,3.0,9.0,68,0.00,,---,0.44,0.00,VWS V14.01,2013-12-11 00:54:00,
2013-12-10 19:59:00,28.2,18.7,30.33,NW,305,5.0,9.0,67,0.00,,---,0.44,0.00,VWS V14.01,2013-12-11 00:59:00,
2013-12-10 20:00:00,28.2,18.7,30.33,WNW,298,2.0,9.0,67,0.00,,---,0.44,0.00,VWS V14.01,2013-12-11 01:00:00,
2013-12-10 20:04:00,28.2,18.7,30.33,West,263,2.0,9.0,67,0.00,,---,0.44,0.00,VWS V14.01,2013-12-11 01:04:00,
2013-12-10 20:09:00,28.2,18.7,30.33,NW,313,4.0,7.0,67,0.00,,---,0.44,0.00,VWS V14.01,2013-12-11 01:09:00,
2013-12-10 20:14:00,28.2,19.0,30.33,WNW,298,5.0,7.0,68,0.00,,---,0.44,0.00,VWS V14.01,2013-12-11 01:14:00,
2013-12-10 20:19:00,28.1,18.6,30.34,WNW,284,0.0,7.0,67,0.00,,---,0.44,0.00,VWS V14.01,2013-12-11 01:19:00,
2013-12-10 20:24:00,28.1,18.6,30.34,WNW,303,3.0,7.0,67,0.00,,---,0.44,0.00,VWS V14.01,2013-12-11 01:24:00,
2013-12-10 20:29:00,28.1,18.6,30.34,WNW,287,0.0,7.0,67,0.00,,---,0.44,0.00,VWS V14.01,2013-12-11 01:29:00,
2013-12-10 20:30:00,28.1,18.6,30.35,WSW,257,5.0,11.0,67,0.00,,---,0.44,0.00,VWS V14.01,2013-12-11 01:30:00,
2013-12-10 20:34:00,28.1,18.6,30.35,WSW,257,5.0,11.0,67,0.00,,---,0.44,0.00,VWS V14.01,2013-12-11 01:34:00,
2013-12-10 20:39:00,28.1,18.6,30.35,West,281,3.0,7.0,67,0.00,,---,0.44,0.00,VWS V14.01,2013-12-11 01:39:00,
2013-12-10 20:44:00,28.1,18.9,30.35,WNW,294,4.0,7.0,68,0.00,,---,0.44,0.00,VWS V14.01,2013-12-11 01:44:00,
2013-12-10 20:49:00,28.1,18.9,30.35,NW,319,2.0,7.0,68,0.00,,---,0.44,0.00,VWS V14.01,2013-12-11 01:49:00,
2013-12-10 20:55:00,28.1,19.3,30.35,NW,306,9.0,11.0,69,0.00,,---,0.44,0.00,VWS V14.01,2013-12-11 01:55:00,
2013-12-10 21:00:00,28.2,19.7,30.35,West,273,5.0,11.0,70,0.00,,---,0.44,0.00,VWS V14.01,2013-12-11 02:00:00,
2013-12-10 21:05:00,28.3,20.1,30.36,NW,319,4.0,6.0,71,0.00,,---,0.44,0.00,VWS V14.01,2013-12-11 02:05:00,
2013-12-10 21:10:00,28.3,20.1,30.36,WNW,295,4.0,10.0,71,0.00,,---,0.44,0.00,VWS V14.01,2013-12-11 02:10:00,
2013-12-10 21:15:00,28.3,20.4,30.36,WNW,303,3.0,11.0,72,0.00,,---,0.44,0.00,VWS V14.01,2013-12-11 02:15:00,
2013-12-10 21:20:00,28.2,20.4,30.36,WSW,243,2.0,11.0,72,0.00,,---,0.44,0.00,VWS V14.01,2013-12-11 02:20:00,
2013-12-10 21:25:00,28.2,20.7,30.36,WSW,249,6.0,13.0,73,0.00,,---,0.44,0.00,VWS V14.01,2013-12-11 02:25:00,
2013-12-10 21:30:00,28.2,20.4,30.37,WSW,244,5.0,13.0,72,0.00,,---,0.44,0.00,VWS V14.01,2013-12-11 02:30:00,
2013-12-10 21:35:00,28.1,20.2,30.37,WNW,284,5.0,7.0,72,0.00,,---,0.44,0.00,VWS V14.01,2013-12-11 02:35:00,
2013-12-10 21:40:00,28.1,20.6,30.37,West,266,4.0,7.0,73,0.00,,---,0.44,0.00,VWS V14.01,2013-12-11 02:40:00,
2013-12-10 21:45:00,28.0,20.2,30.37,NW,306,3.0,7.0,72,0.00,,---,0.44,0.00,VWS V14.01,2013-12-11 02:45:00,
2013-12-10 21:50:00,27.9,20.1,30.37,West,268,4.0,8.0,72,0.00,,---,0.44,0.00,VWS V14.01,2013-12-11 02:50:00,
2013-12-10 21:55:00,27.9,20.1,30.38,WSW,245,3.0,10.0,72,0.00,,---,0.44,0.00,VWS V14.01,2013-12-11 02:55:00,
2013-12-10 22:00:00,27.9,19.7,30.38,West,274,5.0,10.0,71,0.00,,---,0.44,0.00,VWS V14.01,2013-12-11 03:00:00,
2013-12-10 22:06:00,27.9,20.1,30.38,WNW,296,0.0,3.0,72,0.00,,---,0.44,0.00,VWS V14.01,2013-12-11 03:06:00,
2013-12-10 22:11:00,27.8,20.0,30.38,WNW,298,4.0,12.0,72,0.00,,---,0.44,0.00,VWS V14.01,2013-12-11 03:11:00,
2013-12-10 22:16:00,27.8,20.0,30.38,West,264,7.0,12.0,72,0.00,,---,0.44,0.00,VWS V14.01,2013-12-11 03:16:00,
2013-12-10 22:21:00,27.8,20.0,30.38,WNW,285,2.0,12.0,72,0.00,,---,0.44,0.00,VWS V14.01,2013-12-11 03:21:00,
2013-12-10 22:26:00,27.7,19.9,30.38,NW,314,4.0,12.0,72,0.00,,---,0.44,0.00,VWS V14.01,2013-12-11 03:26:00,
2013-12-10 22:30:00,27.7,19.9,30.39,WNW,296,4.0,12.0,72,0.00,,---,0.44,0.00,VWS V14.01,2013-12-11 03:30:00,
2013-12-10 22:31:00,27.7,19.9,30.38,WNW,284,0.0,12.0,72,0.00,,---,0.44,0.00,VWS V14.01,2013-12-11 03:31:00,
2013-12-10 22:36:00,27.6,19.8,30.39,West,275,0.0,4.0,72,0.00,,---,0.44,0.00,VWS V14.01,2013-12-11 03:36:00,
2013-12-10 22:41:00,27.5,19.7,30.39,WNW,293,0.0,4.0,72,0.00,,---,0.44,0.00,VWS V14.01,2013-12-11 03:41:00,
2013-12-10 22:46:00,27.4,19.6,30.38,West,277,0.0,7.0,72,0.00,,---,0.44,0.00,VWS V14.01,2013-12-11 03:46:00,
2013-12-10 22:51:00,27.3,19.8,30.38,NW,323,0.0,7.0,73,0.00,,---,0.44,0.00,VWS V14.01,2013-12-11 03:51:00,
2013-12-10 22:56:00,27.2,19.7,30.38,West,271,4.0,7.0,73,0.00,,---,0.44,0.00,VWS V14.01,2013-12-11 03:56:00,
2013-12-10 23:00:00,27.2,19.4,30.38,WNW,294,3.0,7.0,72,0.00,,---,0.44,0.00,VWS V14.01,2013-12-11 04:00:00,
2013-12-10 23:01:00,27.2,19.4,30.38,West,275,3.0,7.0,72,0.00,,---,0.44,0.00,VWS V14.01,2013-12-11 04:01:00,
2013-12-10 23:07:00,27.2,19.4,30.39,West,267,3.0,5.0,72,0.00,,---,0.44,0.00,VWS V14.01,2013-12-11 04:07:00,
2013-12-10 23:12:00,27.2,19.4,30.38,West,273,4.0,5.0,72,0.00,,---,0.44,0.00,VWS V14.01,2013-12-11 04:12:00,
2013-12-10 23:17:00,27.1,19.0,30.39,WSW,256,5.0,6.0,71,0.00,,---,0.44,0.00,VWS V14.01,2013-12-11 04:17:00,
2013-12-10 23:22:00,27.1,19.0,30.38,West,261,0.0,6.0,71,0.00,,---,0.44,0.00,VWS V14.01,2013-12-11 04:22:00,
2013-12-10 23:27:00,27.0,18.9,30.38,WNW,297,0.0,6.0,71,0.00,,---,0.44,0.00,VWS V14.01,2013-12-11 04:27:00,
2013-12-10 23:30:00,26.9,18.8,30.38,NW,304,5.0,6.0,71,0.00,,---,0.44,0.00,VWS V14.01,2013-12-11 04:30:00,
2013-12-10 23:32:00,26.9,18.8,30.38,West,280,0.0,6.0,71,0.00,,---,0.44,0.00,VWS V14.01,2013-12-11 04:32:00,
2013-12-10 23:37:00,26.9,18.8,30.38,WNW,284,0.0,5.0,71,0.00,,---,0.44,0.00,VWS V14.01,2013-12-11 04:37:00,
2013-12-10 23:42:00,26.9,18.4,30.38,West,281,4.0,6.0,70,0.00,,---,0.44,0.00,VWS V14.01,2013-12-11 04:42:00,
2013-12-10 23:47:00,26.9,18.4,30.38,West,267,2.0,6.0,70,0.00,,---,0.44,0.00,VWS V14.01,2013-12-11 04:47:00,
2013-12-10 23:52:00,26.8,18.3,30.38,WSW,252,3.0,9.0,70,0.00,,---,0.44,0.00,VWS V14.01,2013-12-11 04:52:00,
2013-12-10 23:57:00,26.8,18.3,30.38,West,275,2.0,9.0,70,0.00,,---,0.44,0.00,VWS V14.01,2013-12-11 04:57:00,